Location: Armstrong Village
(14.3346°N, 120.9854°E)
Time: 12:51:39
(UTC+00:00)

Delta 168 - Pass Details

Date: 13 January 2026
Orbit: 391 x 1871 km, 25.3° (Epoch: 16 February)

Event Time Altitude Azimuth Distance (km) Brightness Sun altitude
Rises 11:13:22 0° 238° (WSW) 2,750 7.8 -20.9°
Reaches altitude 10° 11:15:56 10° 233° (SW) 1,684 6.3 -21.5°
Enters shadow 11:19:01 44° 188° (S) 605 3.1 -22.2°
